STARLINK-2215 (48567 NORAD) Tracking and Keplerian Element Data

This shows tracking and keplerian element data for the satellite.

Feedback or suggestion? Click here.




ElementValue
Catalog48567
NameSTARLINK-2215
Epoch Orbit359
Epoch Day214.91667824
Epoch Year2021
RAAN122.4046
Inclination53.0536
Eccentricity0.0001855
Argument of Perigee74.4885
Mean Anonmoly79.4001
Mean Motion15.06399323
Decay Rate-0.00029894
L11 48567U 21041Q 21214.91667824 -.00029894 00000-0 -19964-2 0 9996
L22 48567 53.0536 122.4046 0001855 74.4885 79.4001 15.06399323 3597

Live tracking and technical data element details for STARLINK-2215 (NORAD 48567). STARLINK-2215 can be tracked NOW for your location showing map with azimuth and elevation plus other details from your city location.

Track the satellite on the map from your city or location and see movement details for azimuth, elevation, latitude, longitude, range, height, and movement on the map or in text.







IsCatalogInMostPopularTable: catalog: 48567, numindb: 22
Update: records affected: 1



GetName: 48567 STARLINK-2215

Hit Count: updated at: Tue, 03 Aug 2021 19:52:14 GMT